[[{"header":{"parameterUnit":"m.s-1","parameterCategory":1,"la1":30.2991,"la2":30.254,"lo1":-89.0895,"lo2":-89.0444,"dy":0.0017,"dx":0.0017,"nx":28,"ny":28,"refTime":"2024-08-16T21:00:00:Z","depth":0,"parameterNumber":2,"parameterNumberName":"U-component_of_WINDS"},"data":[0,0,0,0,0,0,0,0,0,0,0,0,0,0,0,0,0,0,0,0,0,0,0,0,0,0,0,0,0,0,0,0,0,0,0,0,0,0,0,0,0,0,0,0,0,0,0,0,0,0,0,0,0,0,0,0,0,0,-0.4187,-0.4187,0,-0.4183,-0.4183,-0.4183,-0.416,-0.416,-0.4159,-0.4159,-0.4155,-0.4156,-0.4156,0,0,0,0,0,0,0,0,0,0,0,0,0,-0.4176,-0.4177,-0.4187,-0.4187,-0.4187,-0.4183,-0.4183,-0.4183,-0.416,-0.416,-0.4159,-0.4158,-0.4155,-0.4156,-0.4156,0,0,0,0,0,0,0,0,0,0,0,0,0,-0.4178,-0.4177,-0.4187,-0.4175,-0.4174,-0.4183,-0.4183,-0.4183,-0.4161,-0.416,-0.4159,-0.4158,-0.4155,-0.4156,-0.4156,-0.4177,0,0,-0.4158,-0.4159,0,0,0,0,0,0,0,0,-0.4177,-0.4178,-0.4177,-0.4176,-0.4175,-0.4171,-0.4178,-0.4181,-0.4161,-0.4166,-0.4159,-0.4158,-0.4161,-0.4162,-0.4163,-0.4177,-0.4177,-0.4158,-0.4159,-0.4159,-0.4159,0,0,0,0,0,0,0,-0.4177,-0.4178,-0.4185,-0.4177,-0.4176,-0.4171,-0.417,-0.4179,-0.4168,-0.4165,-0.4164,-0.4163,-0.4161,-0.4162,-0.4162,-0.4176,-0.4158,-0.4159,-0.4159,-0.416,-0.4209,-0.4209,0,0,0,0,0,0,-0.4179,-0.4178,-0.4186,-0.4185,-0.4174,-0.4171,-0.4171,-0.4173,-0.4168,-0.4167,-0.4164,-0.4162,-0.4161,-0.4162,-0.4162,-0.4187,-0.4159,-0.416,-0.416,-0.4208,-0.4209,-0.421,0,0,0,0,0,0,-0.4179,-0.418,-0.4186,-0.4181,-0.4182,-0.4172,-0.4176,-0.4174,-0.4175,-0.4167,-0.4165,-0.4167,-0.4161,-0.4161,-0.4174,-0.4186,-0.416,-0.4161,-0.4207,-0.4208,-0.4209,-0.4236,0,0,0,0,0,0,-0.4178,-0.418,-0.4187,-0.4182,-0.4182,-0.4197,-0.4176,-0.4174,-0.4176,-0.4174,-0.417,-0.4168,-0.416,-0.4173,-0.4174,-0.4187,-0.4161,-0.4205,-0.4207,-0.4209,-0.4234,-0.4238,-0.4241,0,0,0,0,0,-0.4178,-0.4195,-0.4188,-0.4189,-0.4191,-0.4198,-0.4198,-0.4188,-0.4177,-0.4185,-0.418,-0.4168,-0.4185,-0.4174,-0.4176,-0.4189,-0.4205,-0.4207,-0.4209,-0.4232,-0.4237,-0.4241,0,0,0,0,0,0,-0.4202,-0.4194,-0.4186,-0.4201,-0.42,-0.4194,-0.4203,-0.4193,-0.4196,-0.4194,-0.4182,-0.4181,-0.4195,-0.4193,-0.4182,-0.4209,-0.4193,-0.4195,-0.421,-0.4215,-0.4219,-0.4219,-0.4162,0,0,0,0,0,-0.4209,-0.4215,-0.4207,-0.4221,-0.4221,-0.4212,-0.4215,-0.4207,-0.4206,-0.4206,-0.4202,-0.4202,-0.4207,-0.421,-0.4215,-0.4233,-0.4233,-0.4243,-0.4247,-0.425,-0.4252,-0.4263,-0.4268,-0.4217,-0.4217,-0.4216,0,0,-0.4223,-0.4219,-0.4224,-0.4226,-0.4225,-0.4232,-0.4212,-0.422,-0.4226,-0.4207,-0.4219,-0.4216,-0.4215,-0.4231,-0.4238,-0.4229,-0.4267,-0.4252,-0.4255,-0.4256,-0.4266,-0.4271,-0.4275,-0.4218,-0.4218,-0.4217,0,0,-0.4254,-0.4251,-0.4263,-0.4262,-0.426,-0.4254,-0.4257,-0.4252,-0.425,-0.4261,-0.4248,-0.4254,-0.4263,-0.4263,-0.4265,-0.4296,-0.4286,-0.4298,-0.4318,-0.4329,-0.4333,-0.4337,-0.4349,-0.4353,-0.43,-0.43,-0.43,0,-0.4272,-0.4282,-0.427,-0.4279,-0.4281,-0.4265,-0.4278,-0.4277,-0.4277,-0.4279,-0.4269,-0.4281,-0.4279,-0.4295,-0.4303,-0.4304,-0.4308,-0.4298,-0.4333,-0.4337,-0.434,-0.4352,-0.4356,-0.4301,-0.4301,-0.4301,-0.4301,0,-0.4305,-0.4312,-0.4322,-0.4322,-0.4325,-0.4336,-0.4327,-0.4331,-0.4324,-0.4319,-0.4332,-0.4329,-0.4333,-0.4336,-0.4328,-0.4351,-0.4346,-0.4335,-0.4319,-0.4347,-0.4358,-0.4362,-0.4304,-0.4303,-0.4303,-0.4302,0,0,-0.435,-0.4345,-0.4349,-0.4349,-0.4346,-0.4352,-0.4362,-0.4366,-0.4371,-0.4371,-0.438,-0.4388,-0.4379,-0.438,-0.4372,-0.4382,-0.4408,-0.4369,-0.4369,-0.4378,-0.4435,-0.4445,-0.445,-0.4401,-0.4402,-0.4403,-0.4436,0,-0.438,-0.4398,-0.4388,-0.4407,-0.4415,-0.4399,-0.4409,-0.4408,-0.4404,-0.441,-0.4406,-0.4412,-0.4398,-0.4399,-0.4407,-0.4403,-0.442,-0.4401,-0.4411,-0.4411,-0.4413,-0.4455,-0.4465,-0.4497,-0.444,-0.4441,-0.4441,0,-0.4418,-0.442,-0.444,-0.4437,-0.444,-0.4448,-0.4452,-0.4457,-0.4457,-0.4453,-0.4455,-0.4446,-0.4456,-0.444,-0.4455,-0.4442,-0.4446,-0.4445,-0.4446,-0.4447,-0.4429,-0.4459,-0.4506,-0.4511,-0.4447,-0.4447,-0.4447,0,-0.4451,-0.4459,-0.4472,-0.4473,-0.4469,-0.4476,-0.4474,-0.4473,-0.4476,-0.4479,-0.4482,-0.4486,-0.4488,-0.4492,-0.4484,-0.4472,-0.4501,-0.4483,-0.45,-0.45,-0.4507,-0.4507,-0.4556,-0.4507,-0.4507,-0.4507,-0.4507,0,-0.4486,-0.4499,-0.4487,-0.4495,-0.451,-0.4499,-0.4514,-0.4511,-0.451,-0.4518,-0.4505,-0.4513,-0.4501,-0.4508,-0.4502,-0.4517,-0.4518,-0.4516,-0.4514,-0.4518,-0.4518,-0.4521,-0.4519,-0.4508,-0.4508,-0.4508,-0.4508,0,-0.4526,-0.4518,-0.4531,-0.4527,-0.4526,-0.4537,-0.4534,-0.4541,-0.4537,-0.4547,-0.4549,-0.4541,-0.4549,-0.4541,-0.4548,-0.4544,-0.4564,-0.4559,-0.4565,-0.4564,-0.4581,-0.458,-0.4634,-0.4642,-0.4587,-0.4587,-0.4588,0,-0.4549,-0.4559,-0.4556,-0.456,-0.456,-0.4567,-0.457,-0.456,-0.4564,-0.4565,-0.4573,-0.458,-0.4584,-0.4597,-0.4593,-0.4599,-0.4594,-0.4613,-0.4595,-0.4599,-0.4596,-0.4596,-0.4598,-0.4617,-0.4618,-0.4618,-0.4619,0,-0.4593,-0.4588,-0.4594,-0.4598,-0.4602,-0.4605,-0.4607,-0.4611,-0.4601,-0.4606,-0.4614,-0.4618,-0.4625,-0.4632,-0.4637,-0.4636,-0.4626,-0.4624,-0.4628,-0.4633,-0.4636,-0.4636,-0.4576,-0.4623,-0.4623,-0.4622,-0.4622,-0.4622,-0.4626,-0.4634,-0.4634,-0.464,-0.4641,-0.4643,-0.465,-0.4647,-0.4653,-0.4658,-0.4651,-0.4661,-0.4662,-0.4667,-0.4667,-0.4675,-0.4667,-0.4673,-0.4675,-0.4677,-0.468,-0.4634,-0.4676,-0.4676,-0.4675,-0.4675,-0.4675,0,-0.467,-0.4669,-0.4675,-0.4678,-0.4684,-0.4673,-0.4675,-0.468,-0.4689,-0.469,-0.4695,-0.4704,-0.4711,-0.4708,-0.4714,-0.4721,-0.4717,-0.4723,-0.4723,-0.4724,-0.4686,-0.4682,-0.4727,-0.4727,-0.4727,-0.4727,-0.4727,-0.4727,-0.4694,-0.4708,-0.4704,-0.4718,-0.4717,-0.4727,-0.4729,-0.4731,-0.4732,-0.4743,-0.4749,-0.4746,-0.4745,-0.4752,-0.4758,-0.4757,-0.476,-0.4769,-0.4766,-0.4731,-0.4726,-0.4721,-0.4718,-0.4769,-0.4769,-0.4803,-0.4803,-0.4804]},{"header":{"parameterUnit":"m.s-1","parameterCategory":1,"la1":30.2991,"la2":30.254,"lo1":-89.0895,"lo2":-89.0444,"dy":0.0017,"dx":0.0017,"nx":28,"ny":28,"refTime":"2024-08-16T21:00:00:Z","depth":0,"parameterNumber":3,"parameterNumberName":"V-component_of_WINDS"},"data":[0,0,0,0,0,0,0,0,0,0,0,0,0,0,0,0,0,0,0,0,0,0,0,0,0,0,0,0,0,0,0,0,0,0,0,0,0,0,0,0,0,0,0,0,0,0,0,0,0,0,0,0,0,0,0,0,0,0,3.5295,3.5295,0,3.531,3.531,3.531,3.5265,3.5263,3.5262,3.5261,3.5275,3.5277,3.5278,0,0,0,0,0,0,0,0,0,0,0,0,0,3.5224,3.5226,3.5295,3.5295,3.5295,3.531,3.531,3.531,3.5265,3.5263,3.5262,3.526,3.5275,3.5277,3.5279,0,0,0,0,0,0,0,0,0,0,0,0,0,3.5249,3.5226,3.5295,3.5274,3.5273,3.531,3.531,3.531,3.5265,3.5263,3.5261,3.5259,3.5274,3.5276,3.5279,3.5336,0,0,3.5287,3.5288,0,0,0,0,0,0,0,0,3.5247,3.5251,3.5277,3.5276,3.5274,3.5283,3.529,3.5319,3.5266,3.5268,3.5261,3.5258,3.528,3.5281,3.5289,3.5337,3.5337,3.5287,3.5288,3.5289,3.529,0,0,0,0,0,0,0,3.5246,3.525,3.5301,3.5278,3.5276,3.5264,3.5265,3.5296,3.5285,3.5268,3.5265,3.5267,3.5278,3.5287,3.5289,3.5338,3.5287,3.5289,3.5291,3.5292,3.5431,3.5433,0,0,0,0,0,0,3.5247,3.5249,3.53,3.5301,3.5255,3.5267,3.5268,3.5282,3.5285,3.5283,3.5269,3.5265,3.5283,3.5286,3.5289,3.5354,3.5289,3.5292,3.5293,3.5428,3.5431,3.5434,0,0,0,0,0,0,3.5246,3.5252,3.53,3.5274,3.5279,3.527,3.5287,3.5284,3.5292,3.5286,3.5283,3.5279,3.5282,3.5286,3.5324,3.5354,3.5293,3.5295,3.5426,3.5429,3.5432,3.5486,0,0,0,0,0,0,3.5244,3.5252,3.5274,3.5275,3.5281,3.5335,3.5289,3.5286,3.5297,3.5292,3.5295,3.5293,3.528,3.5321,3.5327,3.5356,3.5297,3.5423,3.5427,3.5431,3.5482,3.5491,3.5499,0,0,0,0,0,3.5241,3.5289,3.5275,3.5282,3.5309,3.5337,3.534,3.5325,3.5299,3.5321,3.5316,3.5293,3.535,3.5325,3.5331,3.5362,3.5421,3.5426,3.5431,3.5478,3.5489,3.5499,0,0,0,0,0,0,3.5291,3.5289,3.5274,3.5323,3.5331,3.5329,3.5356,3.5338,3.5352,3.5347,3.5327,3.5328,3.537,3.537,3.5342,3.5417,3.5381,3.5388,3.5415,3.5425,3.5434,3.5432,3.5299,0,0,0,0,0,3.5308,3.5332,3.5328,3.5372,3.5377,3.5366,3.5378,3.5365,3.5372,3.5375,3.5373,3.538,3.54,3.5413,3.543,3.5482,3.5481,3.5506,3.5515,3.5522,3.5527,3.5552,3.5563,3.545,3.545,3.545,0,0,3.5343,3.5344,3.5361,3.5382,3.5386,3.541,3.5369,3.5397,3.5414,3.5379,3.5415,3.5414,3.542,3.5465,3.5485,3.5467,3.5558,3.5528,3.5534,3.5535,3.5558,3.5569,3.5579,3.5453,3.5452,3.5452,0,0,3.5418,3.5423,3.5458,3.5464,3.547,3.5463,3.5472,3.5473,3.5471,3.5507,3.5481,3.5501,3.5535,3.554,3.5547,3.5623,3.5601,3.5629,3.5673,3.5698,3.5707,3.5715,3.574,3.5749,3.5635,3.5635,3.5635,0,3.546,3.5496,3.5479,3.5508,3.5517,3.5487,3.5522,3.5528,3.554,3.5547,3.5527,3.5568,3.5571,3.5615,3.5633,3.5641,3.5649,3.5628,3.5707,3.5715,3.5722,3.5745,3.5755,3.5638,3.5638,3.5638,3.5637,0,3.5546,3.5571,3.5599,3.5611,3.5624,3.5656,3.5643,3.5658,3.5644,3.5638,3.5674,3.5676,3.5693,3.5703,3.569,3.5745,3.5733,3.5711,3.5674,3.5736,3.5758,3.5767,3.5643,3.5642,3.5641,3.564,0,0,3.5653,3.5655,3.5665,3.5669,3.5674,3.5693,3.5723,3.5739,3.5751,3.5761,3.5784,3.5814,3.5792,3.58,3.5788,3.581,3.5867,3.5784,3.5784,3.5797,3.5925,3.5941,3.5951,3.5853,3.5855,3.5856,3.5924,0,3.5725,3.5776,3.5762,3.5813,3.5834,3.5805,3.5831,3.5837,3.5832,3.5849,3.5844,3.5864,3.5836,3.584,3.5861,3.5856,3.5892,3.5851,3.5873,3.5874,3.587,3.5963,3.598,3.6043,3.5933,3.5934,3.5935,0,3.5816,3.5828,3.5881,3.5881,3.5889,3.5913,3.5925,3.5943,3.5948,3.5943,3.5952,3.5934,3.5962,3.5927,3.5965,3.5937,3.5946,3.5945,3.5947,3.5946,3.5907,3.5963,3.6063,3.6072,3.5949,3.5948,3.5947,0,3.5885,3.5916,3.595,3.5955,3.5957,3.5973,3.5975,3.5978,3.5988,3.5999,3.6004,3.6019,3.6027,3.6038,3.6024,3.6,3.6063,3.6027,3.6058,3.6059,3.6071,3.607,3.6172,3.6081,3.6081,3.608,3.608,0,3.5966,3.5999,3.5981,3.6003,3.6038,3.6021,3.6056,3.6054,3.6057,3.6077,3.6054,3.6072,3.6054,3.6071,3.6061,3.6092,3.6097,3.6092,3.6089,3.6093,3.6093,3.6097,3.6091,3.6083,3.6082,3.6082,3.6081,0,3.6049,3.6039,3.6075,3.6072,3.6073,3.6099,3.6096,3.6115,3.6109,3.6134,3.6139,3.6129,3.6147,3.6135,3.6155,3.6148,3.6188,3.618,3.6186,3.6183,3.6214,3.621,3.632,3.6332,3.6235,3.6236,3.6237,0,3.6101,3.6125,3.6125,3.6136,3.6139,3.6158,3.6168,3.6151,3.6162,3.6169,3.6187,3.6204,3.6216,3.6247,3.6241,3.6255,3.6245,3.6283,3.6247,3.625,3.6243,3.6241,3.6242,3.6289,3.629,3.6291,3.6292,0,3.6192,3.6185,3.62,3.6213,3.6225,3.6235,3.6242,3.6253,3.6236,3.625,3.6268,3.6278,3.6297,3.6313,3.6324,3.6325,3.6305,3.6303,3.6311,3.6314,3.6316,3.6313,3.6203,3.6301,3.63,3.6299,3.6299,3.6298,3.6259,3.6278,3.6281,3.6298,3.6302,3.6309,3.6326,3.6321,3.6337,3.635,3.634,3.6362,3.6365,3.6378,3.6381,3.6397,3.6382,3.6393,3.6395,3.6398,3.6401,3.6316,3.6399,3.6399,3.6399,3.6399,3.6398,0,3.6347,3.6347,3.6363,3.6373,3.6386,3.6367,3.6374,3.6386,3.6405,3.641,3.6422,3.6443,3.6458,3.6453,3.6466,3.648,3.6471,3.6484,3.6482,3.6482,3.6415,3.6406,3.6491,3.6491,3.6491,3.6491,3.6491,3.6491,3.6394,3.6425,3.6419,3.6451,3.6451,3.6471,3.6476,3.6483,3.6486,3.651,3.6522,3.6519,3.6519,3.6532,3.6545,3.6543,3.6548,3.6564,3.6558,3.6496,3.6487,3.6478,3.6469,3.6565,3.6565,3.6623,3.6623,3.6624]}]]